Location: Akgöl Batakl???
(38.9482°N, 31.8837°E)
Time: 20:42:31
(UTC+00:00)

BREEZE-M DEB (TANK) - Pass Details

Date: 08 May 2026
Orbit: 315 x 13391 km, 49.6° (Epoch: 6 June)

Event Time Altitude Azimuth Distance (km) Brightness Sun altitude
Rises 18:01:05 0° 307° (NW) 2,057 7.9 -12.6°
Reaches altitude 10° 18:02:33 10° 311° (NW) 1,315 6.2 -12.9°
Maximum altitude 18:04:59 65° 36° (NE) 525 2.7 -13.2°
Enters shadow 18:07:50 20° 114° (ESE) 1,645 4.6 -13.7°
